Weather History for Stanley, ID

Change the Weather History Date:

Tuesday, November 12, 2013

  Actual Average Record
Temperature  
Mean Temperature 36 °F 26 °F  
Max Temperature 53 °F 37 °F 58 °F (1989)
Min Temperature 19 °F 14 °F -3 °F (1982)
Degree Days  
Heating Degree Days 29 39  
Month to date heating degree days 414 437  
Since 1 July heating degree days 2042 2301  
Cooling Degree Days 0 0  
Month to date cooling degree days 0 0  
Year to date cooling degree days 19 3  
Moisture  
Dew Point 24 °F    
Average Humidity 69    
Maximum Humidity 100    
Minimum Humidity 38    
Precipitation  
Precipitation 0.00 in 0.07 in 1.60 in (1995)
Month to date precipitation 0.89 1.06  
Year to date precipitation 11.76 14.74  
Sea Level Pressure  
Sea Level Pressure 30.43 in    
Wind  
Wind Speed 1 mph (South)    
Max Wind Speed 9 mph    
Max Gust Speed 11 mph    
T = Trace of Precipitation, MM = Missing Value Source: NWS Daily Summary

Daily Weather History Graph

Daily Weather History Graph

Search for Another Location

Airport:

Trip Planner

Search our weather history database for the weather conditions in past years. The results will help you decide how hot, cold, wet, or windy it might be!

Date:

Astronomy

Nov. 12, 2013 Rise Set
Actual Time 7:31 AM MST 5:15 PM MST
Civil Twilight 7:00 AM MST 5:46 PM MST
Nautical Twilight 6:25 AM MST 6:21 PM MST
Astronomical Twilight 5:51 AM MST 6:55 PM MST
Moon 2:41 PM MST (11/12) 2:15 AM MST (11/12)
Length of Visible Light 10h 46m
Length of Day
9h 44m
Waxing Gibbous, 77% of the Moon is Illuminated
Nov 12
Waxing Gibbous
Nov 17
Full
Nov 25
Last Quarter
Dec 2
New
Dec 9
First Quarter

Hourly Weather History & Observations

Time (MST) Temp. Windchill Dew Point Humidity Pressure Visibility Wind Dir Wind Speed Gust Speed Precip Events Conditions
12:51 AM 21.9 °F - 19.9 °F 92% 30.44 in - Calm Calm - N/A   Unknown
1:51 AM 21.9 °F - 19.0 °F 89% 30.43 in - Calm Calm - N/A   Unknown
2:51 AM 21.9 °F - 19.0 °F 89% 30.42 in - Calm Calm - N/A   Unknown
3:51 AM 19.9 °F 14.9 °F 18.0 °F 92% 30.44 in - South 3.5 mph - N/A   Unknown
4:51 AM 19.9 °F - 18.0 °F 92% 30.48 in - Calm Calm - N/A   Unknown
5:51 AM 19.9 °F - 19.0 °F 96% 30.50 in - Calm Calm - N/A   Unknown
6:51 AM 19.0 °F - 17.1 °F 92% 30.53 in - Calm Calm - N/A   Unknown
7:51 AM 19.9 °F - 17.1 °F 89% 30.52 in - Calm Calm - N/A   Unknown
8:51 AM 25.0 °F - 21.9 °F 88% 30.51 in - Calm Calm - N/A   Unknown
9:51 AM 28.9 °F - 24.1 °F 82% 30.50 in - Calm Calm - N/A   Unknown
10:51 AM 33.1 °F 30.0 °F 26.1 °F 75% 30.48 in - North 3.5 mph - N/A   Unknown
11:51 AM 37.9 °F 33.5 °F 26.1 °F 62% 30.43 in - North 5.8 mph - N/A   Unknown
12:51 PM 42.1 °F - 25.0 °F 51% 30.41 in - Calm Calm - N/A   Unknown
1:51 PM 48.0 °F - 26.1 °F 42% 30.36 in - Calm Calm - N/A   Unknown
2:51 PM 51.1 °F - 27.0 °F 39% 30.34 in - Variable 3.5 mph - N/A   Unknown
3:51 PM 48.0 °F - 30.0 °F 50% 30.36 in - Calm Calm - N/A   Unknown
4:51 PM 46.9 °F - 30.9 °F 54% 30.36 in - Calm Calm - N/A   Unknown
5:51 PM 39.9 °F - 27.0 °F 60% 30.41 in - Calm Calm - N/A   Unknown
6:51 PM 39.9 °F - 25.0 °F 55% 30.42 in - Calm Calm - N/A   Unknown
7:51 PM 39.0 °F - 26.1 °F 60% 30.41 in - Calm Calm - N/A   Unknown
8:51 PM 36.0 °F - 27.0 °F 70% 30.40 in - Calm Calm - N/A   Unknown
9:51 PM 34.0 °F 31.0 °F 26.1 °F 73% 30.40 in - Variable 3.5 mph - N/A   Unknown
10:51 PM 33.1 °F - 27.0 °F 78% 30.38 in - Calm Calm - N/A   Unknown
11:51 PM 32.0 °F - 26.1 °F 79% 30.36 in - Calm Calm - N/A   Unknown